Retour au catalogue

STARLINK-36341

ActifCommunicationsVLEO
NORAD 67918·PAYLOAD·🇺🇸 United States

Lancé Feb 22, 2026 depuis Vandenberg Space Force Base

Loading…

Prochains Passages (prochaines 24 heures)

TLE

FraisSource: CelesTrak SupGP

Époque: Sep 15, 2026, 04:08 UTC

1 67918C 26036Q   26258.17270833 -.00026842  00000+0 -97242-3 0  2580
2 67918  42.9990 255.6024 0001293 268.5160 182.5236 15.27584855    11

Suivez STARLINK-36341 en temps réel avec AllMySat

Download on the App Store